Location: Observatorio del Centro Ecologico de Sonora
(29.0667°N, 110.9333°W)
Time: 19:29:32
(UTC-07:00)

ISS - Visible Passes

Search period start: 12 February 2016 00:00
Search period end: 22 February 2016 00:00
Orbit: 398 x 408 km, 51.6° (Epoch: 12 February)

Date Brightness Start Highest point End Pass type
(mag) Time Alt. Az. Time Alt. Az. Time Alt. Az.
17 Feb -0.3 20:07:37 10° NNW 20:07:46 11° NNW 20:07:46 11° NNW visible
18 Feb -1.7 19:15:15 10° N 19:17:37 19° NE 19:17:37 19° NE visible
19 Feb -2.1 19:58:02 10° NW 20:00:17 39° WNW 20:00:17 39° WNW visible
20 Feb -3.2 19:05:06 10° NNW 19:08:16 51° NE 19:10:30 17° ESE visible
21 Feb -0.7 19:49:05 10° W 19:51:28 19° SW 19:53:41 11° S visible
